User: anonymous   Login
Location: Montr�al
(45.5000°N, 73.5830°W)
Time: 08:59:34
(UTC-04:00)
Language:

Cosmos 1470 Rocket - Orbit

View from above orbital plane
View from above orbital plane
View from above satellite
View from above satellite

Ground track
Ground track

The orbit data is extracted from the following two-line orbital elements,

1 14148U 83061B   16145.95441647  .00000118  00000-0  11454-4 0  9992
2 14148  82.5190 273.1802 0021952 168.4134 303.5405 14.83164338777297
Epoch (UTC): 24 May 2016 22:54:21
Eccentricity: 0.0021952
inclination: 82.5190°
perigee height: 604 km
apogee height: 635 km
right ascension of ascending node: 273.1802°
argument of perigee: 168.4134°
revolutions per day: 14.83164338
mean anomaly at epoch: 303.5405°
orbit number at epoch: 77729

The dashed part of the orbit path shows where the satellite is in the earth's shadow,  

DLR